Regional Weather Roundup
Issued by NWS

Home | Current Version | Previous Version | Graphics & Text | Print | Product List | Glossary On
Versions: 1 2 3 4 5 6 7 8 9 10 11 12 13 14 15 16 17 18 19 20 21 22 23 24 25 26 27 28 29 30 31 32 33 34 35 36 37 38 39 40 41 42 43 44 45 46 47 48 49 50
000
ASUS43 KMKX 280821
RWRWI

WISCONSIN REGIONAL WEATHER ROUNDUP
NATIONAL WEATHER SERVICE MILWAUKEE/SULLIVAN WI
300 AM CDT THU MAY 28 2015

NOTE: "FAIR" INDICATES FEW OR NO CLOUDS BELOW 12,000 FEET WITH NO
SIGNIFICANT WEATHER AND/OR OBSTRUCTIONS TO VISIBILITY.

WIZ001-002-006>008-014>016-023>028-280900-
NORTHWEST WISCONSIN

CITY           SKY/WX    TMP DP  RH WIND       PRES   REMARKS
SUPERIOR ARPT  CLEAR     46  43  87 NE8       30.10R
ASHLAND        CLEAR     47  45  93 N8        30.09R
HAYWARD        CLEAR     51  49  92 N6        30.07R FOG
SIREN          CLEAR     53  51  94 CALM      30.05S
CUMBERLAND     CLEAR     54  54 100 CALM      30.07S FOG
RICE LAKE      CLEAR     54  53  95 CALM      30.08S FOG
CHETEK         CLEAR     54  54  99 CALM      30.07S
LADYSMITH      CLEAR     51  51  97 E3        30.10S FOG
EAU CLAIRE     CLEAR     57  54  89 CALM      30.06S
MENOMONIE      CLEAR     58  58  97 CALM      30.07S FOG
NEW RICHMOND   CLEAR     59  55  86 SE6       30.05S
OSCEOLA        CLEAR     55  55 100 E3        30.06S
$$

WIZ003>005-009-010-017-018-280900-
NORTH CENTRAL WISCONSIN

CITY           SKY/WX    TMP DP  RH WIND       PRES   REMARKS
MANITOWISH WTR FOG       48  48 100 CALM      30.10S VSB 1/2
ARBOR VITAE    FOG       52  51  95 CALM      30.10S VSB 1
WOODRUFF       FOG       52  51  95 CALM      30.10S VSB 1
RHINELANDER    FOG       50  49  96 CALM      30.11R VSB 1/2
EAGLE RIVER    FOG       48  48 100 CALM      30.10S VSB 3/4
LAND O LAKES   CLEAR     46  46 100 CALM      30.12R FOG
PHILLIPS       CLEAR     49  49  99 CALM      30.09R
TOMAHAWK       CLEAR     48  47  97 CALM      30.11R
MEDFORD        CLEAR     53  52  95 CALM      30.10R
MERRILL        FOG       49  49 100 CALM      30.11R VSB 3/4
$$

WIZ029-030-035-036-043>047-280900-
CENTRAL WISCONSIN

CITY           SKY/WX    TMP DP  RH WIND       PRES   REMARKS
WAUSAU         CLEAR     56  55  97 CALM      30.09R
MOSINEE        CLEAR     54  54 100 S3        30.12R
MARSHFIELD     CLEAR     57  53  86 CALM      30.10S
STEVENS POINT  FOG       52  52 100 CALM      30.11S VSB 1/2
WAUPACA        CLEAR     57  56  97 CALM      30.11R FOG
WAUTOMA        CLEAR     56  56 100 CALM      30.12R FOG
WISC RAPIDS    CLEAR     56  53  90 E3        30.11R
CAMP DOUGLAS   CLEAR     55  55 100 SE5       30.10S
$$

WIZ011>013-019>022-031-037>040-048>050-280900-
NORTHEAST WISCONSIN

CITY           SKY/WX    TMP DP  RH WIND       PRES   REMARKS
ANTIGO         CLEAR     51  51 100 CALM      30.11R FOG
SHAWANO        PTCLDY    56  55  95 S3        30.10S
OCONTO         CLEAR     50  50 100 CALM      30.09R
STURGEON BAY   CLEAR     55  52  88 S3        30.13R
GREEN BAY      CLEAR     59  55  87 CALM      30.10R
MANITOWOC      CLEAR     51  50  96 CALM      30.11R
APPLETON       CLEAR     59  55  88 SW7       30.11S
CLINTONVILLE   FOG       54  54 100 CALM      30.10S VSB 1
OSHKOSH        CLEAR     58  54  86 S7        30.11R
$$

WIZ032>034-041-042-053>061-280900-
SOUTHWEST WISCONSIN

CITY           SKY/WX    TMP DP  RH WIND       PRES   REMARKS
LA CROSSE      CLEAR     64  60  87 SE8       30.08S
SPARTA         CLEAR     53  51  95 CALM      30.10S
VIROQUA        CLEAR     63  57  82 S5        30.11S
BOSCOBEL       FOG       56  54  93 CALM      30.11S VSB 3/4
PRAIRIE DU CHI CLEAR     59  57  92 CALM      30.10F
PLATTEVILLE    CLEAR     62  58  87 SE5       30.13S
$$

WIZ056-057-062-063-064-067-068-280900-
SOUTH CENTRAL WISCONSIN

CITY           SKY/WX    TMP DP  RH WIND       PRES   REMARKS
REEDSBURG      CLEAR     62  58  87 CALM      30.11S
BARABOO/DELLS  CLEAR     59  54  83 CALM      30.12S
LONE ROCK      CLEAR     59  56  89 E5        30.13R
MINERAL POINT  CLEAR     63  59  88 S5        30.14S
MADISON        CLEAR     64  58  80 S3        30.13S
MIDDLETON      CLEAR     66  57  71 SW9       30.13S
WATERTOWN      CLEAR    N/A N/A N/A CALM      30.13F
MONROE         CLEAR     61  57  88 S8        30.14F
JANESVILLE     CLEAR     59  55  88 CALM      30.14F
$$

WIZ051-052-058>065-066-070>072-280900-
SOUTHEAST WISCONSIN

CITY           SKY/WX    TMP DP  RH WIND       PRES   REMARKS
MILWAUKEE      PTCLDY    62  55  77 SW6       30.14R
WAUKESHA       CLEAR     61  54  77 SW5       30.15S
MILWAUKEE/TIMM CLEAR     61  52  72 CALM      30.15R
RACINE         CLEAR     61  55  81 W5        30.16R
BURLINGTON     CLEAR     54  54  97 S5        30.14F
KENOSHA        CLEAR     58  54  86 SW5       30.15S
FOND DU LAC    CLEAR     58  55  90 S3        30.12R
SHEBOYGAN      CLEAR     58  55  90 SW6       30.12R
WEST BEND      CLOUDY    63  55  77 SW5       30.14R
JUNEAU         PTCLDY    61  57  88 S7        30.14S
$$

LSZ147-162-280900-
LAKE SUPERIOR

STATION/POSITION TIME  TEMP    WIND        PRES    WAVE
                       AIR SEA DIR/SP/G            HT/PER
                 (UTC) (F)     (DEG/KT/KT) (MB)    (FT/S)
W MID LAKE BUOY  0750   41 37   60/ 17/ 19   N/A     2/ 4
DEVILS ISLAND    0800   43      60/ 16/ 19   N/A
PORT WING        0740   46      40/ 14/ 15   N/A
SAXON HARBOR     0740   49        CALM       N/A
$$

LMZ867-665-643>646-280900-
LAKE MICHIGAN

STATION/POSITION TIME  TEMP    WIND        PRES    WAVE
                       AIR SEA DIR/SP/G            HT/PER
                 (UTC) (F)     (DEG/KT/KT) (MB)    (FT/S)
CHAMBERS ISLAND  0700   57     190/  3/  6   N/A
N MID LAKE BUOY  0750   44 36  210/  8/  8   N/A     1/ 3
NORTHPORT PIER   0600   51     160/  7/  9   N/A
SISTER BAY       0718   53     170/  8/ 11   N/A
ALGOMA LAKESHORE 0738             CALM       N/A
KEWAUNEE LAKESHO 0700   51      CALM  /  3   N/A
SHEBOYGAN LAKESH 0800   62     200/  6/  6   N/A
PORT WASHINGTON  0700   53     340/  3/  4   N/A
ATWATER BUOY     0700   56 48  150/  6/  8   N/A
MILWAUKEE LAKESH 0700   65     240/ 10/ 13   N/A
S MID LAKE BUOY  0750   43 38  210/  8/  8   N/A     0
KENOSHA   LAKESH 0800   63     230/  6/ 10   N/A
$$

TC  - TEMPERATURE IN CELSIUS
VSB - VISIBILITY IN STATUTE MILES
WCI - WIND CHILL INDEX
HX  - HEAT INDEX




USA.gov is the U.S. government's official web portal to all federal, state and local government web resources and services.